GW1980 Weather Reports


time (UTC)temp
F
wind
direction
speed
knots
gust
knots
rain 1hr
in
rain 24hr
in
rain mn
in
humidity
%
barometer
mb
20260507002950 62 148 0.9 3.5 0.00 0.14 0.14 86 1014.5
20260507001447 63 108 0.9 2.6 0.00 0.14 0.14 84 1014.5
20260506235952 63 113 0.0 1.7 0.00 0.14 0.14 81 1014.2
20260506234447 62 119 0.9 2.6 0.00 0.14 0.14 83 1014.3
20260506232950 62 151 0.0 0.9 0.00 0.14 0.14 83 1014.2
20260506225954 62 67 0.9 3.5 0.00 0.14 0.14 84 1013.9
20260506224448 61 81 0.9 4.3 0.11 0.14 0.14 83 1013.9
20260506222950 61 90 0.9 2.6 0.11 0.14 0.14 86 1013.7
20260506221447 60 160 0.0 2.6 0.11 0.14 0.14 89 1013.9
20260506215951 59 188 0.9 2.6 0.11 0.14 0.14 88 1014.2
20260506214448 61 340 1.7 4.3 0.00 0.03 0.03 77 1014.5
20260506212949 62 61 3.5 7.8 0.00 0.03 0.03 78 1014.0
20260506211447 61 55 1.7 5.2 0.00 0.03 0.03 79 1014.0
20260506205954 61 335 3.5 7.0 0.00 0.03 0.03 77 1014.2
20260506204447 61 344 3.5 5.2 0.00 0.03 0.03 78 1014.2
20260506202950 60 41 2.6 6.1 0.00 0.03 0.03 79 1014.5
20260506201447 60 57 3.5 8.7 0.00 0.03 0.03 79 1014.5
20260506194448 59 42 4.3 7.0 0.00 0.03 0.03 81 1014.9
20260506192950 58 29 3.5 7.8 0.00 0.03 0.03 83 1015.1
20260506191447 57 40 3.5 7.0 0.00 0.03 0.03 85 1015.4
20260506185954 56 51 1.7 6.1 0.00 0.03 0.03 85 1015.5
20260506184447 55 356 1.7 4.3 0.00 0.03 0.03 88 1015.8
20260506181447 54 12 2.6 5.2 0.00 0.03 0.03 87 1015.8
20260506175952 54 360 4.3 11.3 0.00 0.03 0.03 89 1015.4
20260506174447 55 26 6.1 12.2 0.00 0.03 0.03 88 1014.7
20260506171447 53 37 5.2 9.6 0.00 0.03 0.03 94 1014.7
20260506165952 52 44 4.3 10.4 0.00 0.03 0.03 98 1015.2
20260506164447 52 28 4.3 7.8 0.00 0.03 0.03 98 1014.6
20260506162950 52 43 2.6 6.1 0.00 0.03 0.03 98 1015.2
20260506161447 52 55 4.3 9.6 0.00 0.03 0.03 98 1015.1
20260506155950 51 28 5.2 8.7 0.00 0.03 0.03 97 1015.2
20260506154447 52 13 4.3 8.7 0.00 0.03 0.03 97 1014.7
20260506152950 52 81 6.1 13.0 0.00 0.03 0.03 98 1014.4
20260506151447 52 56 3.5 8.7 0.03 0.03 0.03 98 1014.2
20260506145953 50 359 1.7 4.3 0.03 0.03 0.03 97 1015.8
20260506144447 50 333 4.3 8.7 0.03 0.03 0.03 96 1015.9
20260506142950 51 40 3.5 8.7 0.02 0.02 0.02 91 1015.8
20260506141447 52 321 3.5 6.1 0.00 0.00 0.00 89 1016.6
20260506135952 52 360 6.1 10.4 0.00 0.00 0.00 87 1014.5
20260506134447 52 57 7.8 13.9 0.00 0.00 0.00 86 1014.4
20260506132949 53 330 6.1 11.3 0.00 0.00 0.00 85 1014.9
20260506131447 53 9 3.5 8.7 0.00 0.00 0.00 84 1014.5
20260506125953 53 356 5.2 11.3 0.00 0.00 0.00 84 1014.1
20260506124447 54 64 4.3 13.9 0.00 0.00 0.00 83 1013.5
20260506122950 55 49 3.5 8.7 0.00 0.00 0.00 82 1013.3
20260506121447 55 347 5.2 7.8 0.00 0.00 0.00 81 1013.1
20260506115950 56 1 3.5 7.0 0.00 0.00 0.00 81 1012.8
20260506112950 57 33 3.5 9.6 0.00 0.00 0.00 81 1012.8
20260506111447 57 347 3.5 7.0 0.00 0.00 0.00 80 1012.4
20260506105953 57 353 4.3 9.6 0.00 0.00 0.00 79 1012.0
20260506104447 57 6 3.5 10.4 0.00 0.00 0.00 80 1012.1
20260506102949 58 18 3.5 7.8 0.00 0.00 0.00 81 1011.6
20260506101447 58 44 2.6 4.3 0.00 0.00 0.00 82 1011.3
20260506095951 58 359 1.7 5.2 0.00 0.00 0.00 82 1011.1
20260506094447 58 9 2.6 6.1 0.00 0.00 0.00 82 1010.8
20260506092950 58 60 3.5 8.7 0.00 0.00 0.00 82 1010.8
20260506091447 59 46 1.7 6.1 0.00 0.00 0.00 83 1010.6
20260506085952 59 49 4.3 7.8 0.00 0.00 0.00 83 1010.8
20260506084447 59 49 3.5 7.0 0.00 0.00 0.00 83 1010.8
20260506082949 59 58 3.5 7.0 0.00 0.00 0.00 84 1010.5
20260506081447 60 25 2.6 6.1 0.00 0.00 0.00 83 1010.4
20260506072950 60 358 2.6 6.1 0.00 0.00 0.00 83 1010.2
20260506071447 60 49 0.0 6.1 0.00 0.00 0.00 84 1010.1
20260506061447 61 39 2.6 8.7 0.00 0.00 0.00 81 1009.9
20260506044447 64 4 2.6 7.8 0.00 0.00 0.00 77 1009.9
20260506042951 65 7 2.6 6.1 0.00 0.00 0.00 76 1009.8
20260506041447 66 30 4.3 7.8 0.00 0.00 0.00 75 1009.8
20260506035952 66 7 4.3 8.7 0.00 0.00 0.00 75 1009.9
20260506034447 66 3 4.3 8.7 0.00 0.00 0.00 74 1009.9
20260506032950 67 34 5.2 11.3 0.00 0.00 0.00 73 1009.5
20260506031447 67 25 4.3 8.7 0.00 0.00 0.00 73 1008.9
20260506025953 68 47 5.2 10.4 0.00 0.00 0.00 72 1008.4
20260506024447 69 46 3.5 7.8 0.00 0.00 0.00 72 1008.1
20260506022950 70 85 4.3 9.6 0.00 0.00 0.00 72 1007.7
20260506021448 71 40 6.1 10.4 0.00 0.00 0.00 71 1007.3
20260506015952 71 58 5.2 8.7 0.00 0.00 0.00 70 1007.3
20260506014447 71 16 4.3 9.6 0.00 0.00 0.00 70 1006.9
20260506011448 73 16 2.6 6.1 0.00 0.00 0.00 68 1006.2